Voltar ao catálogo

STARLINK-11534

AtivoComunicaçõesVLEO
NORAD 62555·PAYLOAD·🇺🇸 United States

Lançado Jan 10, 2025 de Cape Canaveral Space Force Station

Loading…

Próximas Passagens (próximas 24 horas)

TLE

AtualizadoSource: CelesTrak SupGP

Época: Sep 15, 2026, 03:09 UTC

1 62555C 25006B   26258.13173611 -.00006269  00000+0 -48656-4 0  2587
2 62555  43.0007  77.7113 0001694 268.9262 318.9348 15.70856789    13

Acompanhe STARLINK-11534 em tempo real com AllMySat

Download on the App Store